Timeline UpdatesTrip UpdatesNews PostsPvt Posts♥♥Travel TipsAdmin PostsConv PostsFollowed PostsChat RequestsBlog PostsPNR Posts

Disclaimer
Search
 
 
Mon Oct 20, 2014 13:40:14 ISTHomeTrainsΣChainsAtlasPNRForumGalleryNewsFAQTripsMembersLoginFeedback
No Recent News for this Train
Other Trains in the News **new
Latest...
.
Sun Nov 03, 2013 (10:46PM)
⇐ Return Journey: Train# 13352

13351/Dhanbad-Alappuzha Express

Time-Table HAS CHANGED.
Sep 13 2014 (11:08AM)
Change Departure Station:
Change Arrival Station:
Post a Train Travel TipPost a Train Travel Tip **new
Post a Comment/Question/Picture/VideoPost a Comment/Question/Picture/Video
Pantry/Catering
✓ Pantry Car Avbl
✓ Catering Avbl
Average
Loco/Rake Reversals
MAS/Chennai Central (12); SRR/Shoranur Junction (7); VSKP/Visakhapatnam Junction (8);
RSA - Rake Sharing
Rake/Coach Composition
LOCO-SLR-GS-S1-S2-S3-S4-S5-; S6-S7-S8-PC-A1-B1-B2*-A2*-ST1*-ST2*-; ST3*-ST4*-ST5*-GS*-SLR*;(DHN-VSKP, MAS-SRR) ; *Tata portion attached at ROU; CC reverses for VSKP-MAS & SRR-ALLP)
Loco
Official Loco DHN - ROU :- WAM-4 ROU - VSKP :- WDM-3A/WDG-3A...
Read more...
(Twins) VSKP - MAS :- WAM-4/WAP-1 MAS - ALLP:- WAM-4/WAP-4
News    PNR    Forum    Time-Table    Availability    Fare Chart    Map    Arr/Dep History    Trips    Gallery    ΣChains    X/O    Timeline    
Travel Time: 49h 35m    84 halts    Distance: 2268 km    Avg Speed: 45 km/hr
Type: Mail/Express
Zone: ECR/East Central
Departs @ 10:50 (Avg 6m late)
Platform# 5
SMTWTFS
Dhanbad Junction/DHN 
Arrives @ 12:25 +2 nights (Avg 45m late)
Platform# ???
SMTWTFS
Coimbatore Main Junction/CBE 

84 halts. 369 intermediate Stations between Dhanbad Junction and Coimbatore Main Junction

Show ALL intermediate Stations  Show Old Time-Table

#TrkCodeStation NameX/OArrivesAvgDepartsAvgHaltPFDay#KmSpeedElevZoneAddress
1/==/DHNDhanbad Junction (9)»  -10:50+6510.030235mECR2319801. Div. HQ ECR, Jharkhand
2/==/KTHKatrasgarh (1)  11:18+611:20+72m1113.834198mECRKatrasgarh, Jharkhand
3/--/CRPChandrapura Junction (3)X  11:56+611:58+82m1134.335227mECR06549-242555, Jharkhand
4/==/BKSCBokaro Steel City (3)  12:25+912:35+910m2149.871245mSER06542-253861, Jharkhand
5/==/PNWPundhag (3)  12:49+1012:50+111m2166.563291mSERDist - Puruliya -723215, West Bengal
6/==/JAAJhalida (3)  13:12+1313:13+141m--189.738297mSERJhalida, West Bengal
7/==/MURIMuri Junction (3)X  13:33+1313:35+132m21102.548254mSER06522-222444, Jharkhand
8/==/RNCRanchi Junction (6)X  14:50+1715:05+1615m31162.228632mSERDiv HQ SER, Jharkhand
9/==/HTEHatia (3)  15:20+1615:25+175m--1169.278657mSER2788599, Jharkhand
10/--/GBXGovindpur Road (3)  15:58 15:57+2416:00 15:58+252 1m--1210.982577mSERkhunti, Jharkhand
11/--/BANOBano (2)  16:45 16:37+2916:46 16:38+301m--1264.136452mSERDist. Gumla, Jharkhand
12/--/NXNNuagaon  17:49+1217:50+151m--1306.252218mSERKeonjhar, Odisha
13/-=/BNDMBondamunda (2)  18:14+1918:15+81m--1326.926213mSERRourkela, Odisha
14/--/ROURourkela Junction (5)X  18:30+1419:00+2730m21333.464198mSERRourkela, Odisha
15/==/GPRaj Gangpur (3)O  19:28+3219:29+331m11363.269237mSERRaj Ganpur, Odisha
16/==/BMBBamra (3)X  19:59+3620:00+361m--1397.955259mSERBamra PH : 06642-229268, Odisha
17/==/JSGJharsuguda Junction (5)  20:40+2420:50+2210m11434.469236mSERJharsuguda, Odisha
18|==!RGLRengaliO  21:15 21:13+4621:17 21:15+462m--1460.869208mECoRState Highway 10, Odisha
19|==|SBPDSambalpur Road  21:35 21:33+521:37 21:35+52m--1481.59161mECoRSambalpur, Odisha
20|--|SBPSambalpur Junction (3)X  21:45+4921:55+5010m--1483.064159mECoRSambalpur, Odisha
21|--|ATSAttabira  22:18+5522:20+592m--1507.577164mECoRBargarh, Odisha
22|--|BRGABargarh Road (3)XO  22:34+1:0322:39+1:105m--1525.672185mECoRBargarh, Odisha
23|--|BRPLBarpaliX  22:57 22:55+1:1022:59 22:57+1:152m--1544.865178mECoRBarpali, Odisha
24|--|BLGRBalangir (3)  23:50+1:1523:55+1:225m--1601.847210mECoRBolangir, Odisha
25|--|BUDMBadmal  00:50+1:0900:52+1:102m--2645.223209mECoRDumerbahal Rd, Odisha
26|--|TIGTitlagarh Junction (3)XO  01:45+3801:55+4510m--2665.256212mECoRTitlagarh, Odisha
27%==%KSNGKesinga (1)XO  02:10+4402:12+442m12679.165183mECoRKesinga, Odisha
28%==%RPRDRupra RoadO  02:27+4602:29+462m--2695.344233mECoRKalahandi, Odisha
29%==%NRLRNorla RoadO  02:38+4502:40+452m--2702.060247mECoRKalahandi, Odisha
30%==%AMBAmbodala  03:05+4403:07+442m--2727.039374mECoRState Highway 6, Odisha
31%==%MNGDMunigudaX  03:45+3303:47+352m--2752.041335mECoRMuniguda, Odisha
32%==%THVTherubaliO  04:40+2204:42+242m--2788.031270mECoRRayagada, Odisha
33%==%SPRDSingapuram Road (2)X  05:00+2305:02+282m--2797.315248mECoRJaykaypur, Odisha
34%==%RGDARayagada (3)O  05:40+1205:55+1615m--2806.673229mECoRRayagada ph.no 06856-222407, Odisha
35%==%PVPTParvatipuram TownXO  06:32-06:34-2m--2851.925121mECoRParvatipuram, Andhra Pradesh
36%==%PVPParvatipuram (3)X  06:38+2306:40+232m--2853.572122mECoRParvatipuram, Andhra Pradesh
37%==%VBLBobbili Junction (2)X  07:00+2307:03+233m22877.449137mECoRBobbili, Andhra Pradesh
38%==%VZMVizianagaram Junction (5)  08:15 08:10+1408:20 08:15+205m--2931.78463mECoRVizianagaram, Andhra Pradesh
39/==/KTVKottavalasa Junction (5)X  08:48 08:40+3508:50 08:42+362m--2966.66058mECoRVizianagaram District, Andhra Pradesh
40/==/SCMSimhachalam (2)X  09:17 09:00-09:19 09:02-2m--2984.7927mECoRVisakhapatnam, Andhra Pradesh
41/==/VSKPVisakhapatnam Junction (8)XO10:05 09:55+1110:25 10:15+1420m32992.83311mECoRVishakhapatnam 530001, Andhra Pradesh
42/==/DVDDuvvada (4)X  10:55 10:45+1710:57 10:47+182m121009.24246mECoRVishakhapatnam District, Andhra Pradesh
43/==/AKPAnakapalle (3)  11:10+2211:11+241m221025.27130mSCRAnakapalle ph.no . 08924-221698, Andhra Pradesh
44/==/YLMElamanchili (2)X  11:31+2711:32+291m--21048.97123mSCRVisakhapatnam District, Andhra Pradesh
45/==/NRPNarsipatnam Road (2)  11:47+3511:48+361m--21066.68418mSCRVisakhapatnam District, Andhra Pradesh
46/==/TUNITuni (2)X  12:04+4212:05+451m121088.97124mSCRTuni ph.no. 08854-252172, Andhra Pradesh
47/==/ANVAnnavaram (3)  12:19+5112:20+531m121105.67627mSCREast Godavari District, Andhra Pradesh
48/==/GLPGollaproluX  12:35+5612:36+581m--21124.74919mSCRGollaprollu, Andhra Pradesh
49/==/PAPPithapuram (2)  12:43+5812:44+1:021m--21130.47222mSCREast Godavari District, Andhra Pradesh
50/==/SLOSamalkot Junction (3)  12:54+1:0512:55+1:061m321142.48418mSCRSamalkot, Andhra Pradesh
51/==/APTAnaparti (3)  13:14+1:1513:15+1:161m--21169.03821mSCREast Godavari District, Andhra Pradesh
52/==/DWPDwarapudi (3)  13:21+1:1513:22+1:161m--21172.72420mSCREast Godavari District, Andhra Pradesh
53/==/RJYRajahmundry (3)  14:11+5014:16+505m121192.63623mSCRRajahmundry ph.no. 0883-2420541, Andhra Pradesh
54/==/KVRKovvur (3)  14:29+5514:30+561m321200.56125mSCRWest Godavari, Andhra Pradesh
55/==/NDDNidadavolu Junction (3)  14:44+1:0214:45+1:031m221214.87120mSCRNidadavolu jtn ph.no. 08813-210325, Andhra Pradesh
56/==/TDDTadepalligudem (3)X  15:02+1:0515:03+1:061m321234.88718mSCRTadepalligudem, Andhra Pradesh
57/==/EEEluru (3)X  15:36+1:0715:37+1:091m321282.53319mSCREluru Ph.no. 08812 226401., Andhra Pradesh
58/==/BZAVijayawada Junction (10)X  17:25+4217:45+4320m--21341.96924mSCRVijayawada 520001, Andhra Pradesh
59/==/TELTenali Junction (5)O  18:12+5618:13+571m321373.26616mSCRTel: 08644-227834, Andhra Pradesh
60/==/NDONidubrolu (3)  18:33+5818:34+1:001m--21395.2659mSCRNidubrolu, Andhra Pradesh
61/==/BPPBapatla (3)X  18:53+1:0318:54+1:031m--21415.87510mSCRBapatla, Andhra Pradesh
62/==/CLXChirala (4)X  19:06+1:0419:07+1:061m--21430.8768mSCRChirala, Andhra Pradesh
63/==/CJMChinnaganjam (3)X  19:23+1:1219:24+1:131m--21451.2369mSCRChinna Ganjam, Andhra Pradesh
64/==/OGLOngole (3)  20:12+5720:13+581m321480.27712mSCROngole, Andhra Pradesh
65/==/SKMSingarayakonda (2)X  20:35+1:0220:36+1:031m221508.49126mSCRSingarayakonda, Andhra Pradesh
66/==/KVZKavali (4)X  21:01+1321:02+141m221546.27621mSCRKavali, Andhra Pradesh
67/==/BTTRBitragunta (2)X  21:15+2821:16+281m221562.64515mSCRBitragunta, Andhra Pradesh
68/==/NLRNellore (4)X  22:02+2522:03+251m321597.01721mSCRNellore, Andhra Pradesh
69/==/GDRGudur Junction (3)  00:18+1600:20+182m131635.46919mSCRGudur, Andhra Pradesh
70/==/NYPNayadupeta (3)  00:44+2700:45+391m231663.16833mSRNayudupeta, Andhra Pradesh
71/==/SPESullurupeta (3)  01:09+4601:10+471m231690.3479mSR524121., Andhra Pradesh
72/==/MASChennai Central (12)↵¶02:55+3603:25+4030m531772.8579mSRChennai 600003, Tamil Nadu
73/==/TRLTiruvallur (6)  04:09+4104:10+421m--31814.56550mSRTiruvallur, Tamil Nadu
74/==/AJJArakkonam Junction (8)X  04:35+4004:40+385m--31841.46891mSRArakkonam, Tamil Nadu
75/==/MCNMukundarayapuram (2)  05:19+3905:20+401m--31885.733198mSRSipcot Ranipet, Tamil Nadu
76/==/KPDKatpadi Junction (5)  05:50+2905:55+315m131902.277213mSRVellore 632007, Tamil Nadu
77/==/GYMGudiyattam (3)  06:14+3206:15+331m331926.891269mSRVellore, Tamil Nadu
78/==/VNVaniyambadiXO  06:44+3806:45+391m--31970.628357mSRVaniyambadi, Tamil Nadu
79/==/JTJJolarpettai Junction (5)O  07:18+2307:20+262m--31986.143405mSRJolarpettai, Tamil Nadu
80/==/TPTTirupattur (2)  07:30+3507:32+352m--31993.273392mSRTirupattur ph.no. 04179-220062, Tamil Nadu
81/==/SLYSamalpatti  07:50 07:51+3707:52+392 1m--32016.490388mSRSamalpatti ph.no. 04341-245601, Tamil Nadu
82/==/BQIBommidiX  08:23+4308:25+472m--32063.1520mSRBommidi ph.no. 04346-244441, Tamil Nadu
83/==/SASalem Junction (6)XO  09:00 09:15+5209:05 09:20+525m--32106.361283mSRSalem, Tamil Nadu
84/==/EDErode Junction (4)X  10:15 10:20+4910:25 10:30+5010m232167.770175mSRErode ph.no: 0424-2256111, Tamil Nadu
85/==/TUPTiruppur (2)  11:03 11:13+5311:05 11:15+542m132217.943305mSRTiruppur. Ph:0421-2200450, Tamil Nadu
86/==/CBECoimbatore Main Junction (6)•X  12:08 12:25+4512:10 12:30+462 5m--32268.439416mSRCoimbatore 641001, Tamil Nadu
87/==/PGTPalakkad Junction (4)X  13:30 13:55+4113:35 14:00+455m--32323.73684mSRPalghat Tel: 0491 2555231, Kerala
88/==/SRRShoranur Junction (7)14:40 15:15+3715:25+4445 10m532368.34226mSRShoranur ph.no 0466-2222913, Kerala
89/==/TCRThrissur (4)  16:27 16:12+4416:30 16:15+453m132401.2606mSRThrissur Tel: 0487 2423150, Kerala
90/==/AWYAluva (3)XO  17:18 17:10+4717:20 17:12+472m132455.81712mSRPh: 0484-2624141, Kerala
91/=-/ERSErnakulam Junction (South) (6)  18:26 18:20+3218:30 18:25+364 5m132475.2413mSRErnakulam 682016, Kerala
92/--/TUVRTuravur (2)  19:04 18:59+3219:05 19:00+331m132498.6665mSRThuravoor, Kerala
93/--/SRTLCherthala (3)O  19:19 19:09+3219:20 19:10+331m232508.6737mSRPh: 0478- 2812500, Kerala
94/--/MAKMMararikkulam (1)X  19:25 19:19+4519:45 19:20+4720 1m132519.61312mSRMararikulam, Kerala
95/--/ALLPAlappuzha (3)  20:20+34-332532.8-8mSRPh:0477-2253965, Kerala
Scroll to Top
Scroll to Bottom